SCP
0 0 0 0 0 0 0 0 0 0 0 0 0 0 0 0 0 0 0 0 0 0 0 0 0 0 0 0 0 0 0 0 0 0 0 0 0 0 0 0 0 0 0
0 -0 -0 0 0 0 0 0 0 0 0 0 0 0 0 0 0 0 0 0 0 0 0 0 0 0 0 0 0 0 0 0 0 0 0 0 0 0 0 0 0 0 0
0 0 0 0 0 0 0 0 0 0 0 0 0 0 0 0 0 0 0 0 0 0 0 0 0 0 0 0 0 0 0 0 0 0 0 0 0 0 0 0 0 0 0
0 0 0 0 0 0 0 0 0 0 0 0 0 0 0 0 0 0 0 0 0 0 0 0 0 0 0 0 0 0 0 0 0 0 0 0 0 0 0 0 0 0 0
0 0 0 0 0 0 0 0 0 0 0 0 0 0 0 0 0 0 0 0 0 0 0 0 0 0 0 0 0 0 0 0 0 0 0 0 0 0 0 0 0 0 0
0 0 0 0 0 0 0 0 0 0 0 0 0 0 0 0 0 0 0 0 0 0 0 0 0 0 0 0 0 0 0 0 0 0 0 0 0 0 0 0 0 0 0
0 0 0 0 0 0 0 0 0 0 0 0 0 0 0 0 0 0 0 0 0 0 0 0 0 0 0 0 0 0 0 0 0 0 0 0 0 0 0 0 0 0 0
0 0 0 0 0 0 0 0 0 0 0 0 0 0 0 0 0 0 0 0 0 0 0 0 0 0 0 0 0 0 0 0 0 0 0 0 0 0 0 0 0 0 0
0 0 0 0 0 0 0 0 0 0 0 0 0 0 0 0 0 0 0 0 0 0 0 0 0 0 0 0 0 0 0 0 0 0 0 0 0 0 0 0 0 0 0
0 0 0 0 0 0 0 0 0 0 0 0 0 0 0 0 0 0 0 0 0 0 0 0 0 0 0 0 0 0 0 0 0 0 0 0 0 0 0 0 0 0 0
0 0 0 0 0 0 0 0 0 0 0 0 0 0 0 0 0 0 0 0 0 0 0 0 0 0 0 0 0 0 0 0 0 0 -0 0 0 0 0 0 0 0 0
0 0 0 0 0 0 0 0 0 0 0 0 0 0 0 0 0 0 0 0 0 0 0 0 0 0 0 0 0 0 0 0 0 0 0 0 0 0 0 0 0 0 0
0 0 0 0 0 0 0 0 0 0 0 0 0 0 0 0 0 0 0 0 0 0 0 0 0 0 0 0 0 0 0 0 0 0 0 0 0 0 0 0 0 0 0
0 0 0 0 0 0 0 0 0 0 0 0 0 0 0 0 0 0 0 0 0 0 0 0 0 0 0 0 0 0 0 0 0 0 0 0 0 0 0 0 0 0 0
0 0 0 0 0 0 0 0 0 0 0 0 0 0 0 0 0 0 0 0 0 0 0 0 0 0 0 0 0 0 0 0 0 0 0 0 0 0 0 0 0 0 0
0 0 0 0 0 0 0 0 0 0 0 0 0 0 0 0 0 0 0 0 0 0 0 0 0 0 0 0 0 0 0 0 0 0 0 0 0 0 0 0 0 0 0
0 0 0 0 0 0 0 0 0 0 0 0 0 0 0 0 0 0 0 0 0 0 0 0 0 0 0 0 0 0 0 0 0 0 0 0 0 0 0 0 0 0 0
0 0 0 0 0 0 0 0 0 0 0 0 0 0 0 0 0 0 0 0 0 0 0 0 0 0 0 0 0 0 0 0 0 0 0 0 0 0 0 0 0 0 0
0 0 0 0 0 0 0 0 0 0 0 0 0 0 0 0 0 0 0 0 0 0 0 0 0 0 0 0 0 0 0 0 0 0 0 0 0 0 0 0 0 0 0
0 0 0 0 0 0 0 0 0 0 0 0 0 0 0 0 0 0 0 0 0 0 0 0 0 0 0 0 0 0 0 0 0 0 0 0 0 0 0 0 0 0 0
0 0 0 0 0 0 0 0 0 0 0 0 0 0 0 0 0 0 0 0 0 0 0 0 0 0 0 0 0 0 0 0 0 0 0 0 0 0 0 0 0 0 0
0 0 0 0 0 0 0 0 0 0 0 0 0 0 0 0 0 0 0 0 0 0 0 0 0 0 0 0 0 0 0 0 0 0 0 0 0 0 0 0 0 0 0
0 0 0 0 0 0 0 0 0 0 0 0 0 0 0 0 0 0 0 0 0 0 0 0 0 0 0 0 0 0 0 0 0 0 0 0 0 0 0 0 0 0 0
0 0 0 0 0 0 0 0 0 0 0 0 0 0 0 0 0 0 0 0 0 0 0 0 0 0 0 0 0 0 0 0 0 0 0 0 0 0 0 0 0 0 0
0 0 0 0 0 0 0 0 0 0 0 0 0 0 0 0 0 0 0 0 0 0 0 0 0 0 0 0 0 0 0 0 0 0 0 0 0 0 0 0 0 0 0
0 0 0 0 0 0 0 0 0 0 0 0 0 0 0 0 0 0 0 0 0 0 0 0 0 0 0 0 0 0 0 0 0 0 0 0 0 0 0 0 0 0 0
Wind_Speed
3 3 3 2 2 2 2 2 1 1 2 2 2 2 2 3 3 3 3 3 3 3 3 3 3 2 2 2 1 0 0 1 2 3 2 2 2 2 3 2 2 2 2
3 3 3 2 2 3 2 2 2 2 2 1 2 2 2 2 2 2 3 3 3 3 4 3 4 3 3 2 2 1 1 1 2 3 3 2 2 2 2 2 2 2 2
4 4 3 3 3 2 2 2 2 2 2 2 2 2 2 2 2 2 2 2 2 2 3 3 4 3 3 3 2 2 2 2 1 2 3 2 2 2 2 2 2 2 2
4 4 3 2 2 1 2 2 3 2 3 2 2 2 2 2 2 2 2 2 2 3 2 2 3 3 3 3 3 3 2 2 2 2 3 3 2 2 1 2 2 2 2
5 4 3 2 2 2 3 3 3 3 3 3 3 3 3 2 2 2 2 2 2 3 3 3 3 5 6 4 3 3 2 2 2 2 3 3 3 2 2 2 2 2 3
5 4 3 3 3 3 3 3 4 4 3 4 4 3 4 3 5 5 4 2 2 3 4 4 5 5 8 9 9 7 4 3 3 3 3 3 4 3 3 2 2 2 3
5 4 3 3 3 2 3 3 3 3 3 3 3 3 3 4 7 7 6 3 2 2 3 4 5 6 7 5 7 9 7 7 6 4 5 5 5 4 3 3 3 4 4
5 4 3 3 3 2 3 3 2 2 2 2 3 3 3 4 7 7 7 4 3 3 3 2 3 5 6 6 5 5 5 6 6 5 5 7 6 5 5 5 5 4 4
5 4 4 4 3 3 2 1 1 1 2 1 1 2 3 4 6 6 6 2 3 3 3 3 4 4 9 9 5 5 6 7 7 8 9 10 11 10 7 3 3 3 4
6 5 4 4 4 3 2 1 1 1 1 1 2 2 2 2 5 6 5 1 2 3 3 4 6 8 11 10 4 4 6 7 7 8 8 8 7 8 8 6 5 4 4
5 5 4 4 4 3 2 1 2 1 1 1 1 2 2 3 5 6 5 1 1 2 3 4 5 11 12 11 8 4 7 9 6 6 6 6 5 5 5 4 5 5 5
6 5 4 4 3 3 3 2 1 2 1 0 1 2 3 3 4 5 6 4 3 1 3 4 5 11 12 11 8 9 11 9 4 4 5 5 5 5 5 5 6 6 7
6 5 4 3 3 3 3 3 1 1 1 1 1 2 3 3 4 7 7 7 6 3 4 7 9 11 10 8 9 11 9 4 4 4 5 5 5 6 5 4 5 5 6
6 5 4 4 3 2 2 3 3 2 2 2 2 3 3 3 4 3 3 4 5 5 4 6 9 9 6 7 8 6 4 4 4 4 5 5 5 4 4 4 4 4 4
6 5 4 4 3 3 3 3 4 4 5 4 4 4 3 4 6 7 4 3 3 4 4 3 3 4 4 4 4 5 4 4 4 4 4 5 5 5 5 4 4 4 4
5 5 4 3 3 3 2 3 5 6 8 9 8 6 6 9 10 10 9 9 9 8 3 2 4 4 5 5 5 5 5 5 5 4 5 5 5 6 6 4 4 5 6
6 6 4 4 3 3 3 3 3 5 6 8 9 9 9 10 11 10 10 9 9 7 3 4 5 5 5 5 5 5 6 6 5 5 5 6 6 6 6 6 5 5 6
6 6 5 4 4 4 4 4 4 4 4 4 6 9 10 11 11 11 10 6 4 3 3 5 6 6 5 6 6 6 6 6 5 5 6 6 6 6 6 6 6 7 6
6 4 4 4 4 4 4 4 4 4 4 5 4 6 9 9 9 10 7 3 5 5 5 5 6 6 6 6 6 6 6 6 7 6 6 6 6 6 7 7 7 9 8
5 8 6 4 3 3 3 4 4 4 5 5 5 6 4 2 3 5 4 4 5 6 6 6 6 6 6 6 6 6 6 6 7 7 6 6 6 7 8 9 8 7 7
5 5 7 4 4 4 4 5 5 5 5 5 6 7 8 5 6 7 6 6 6 6 6 6 6 6 6 6 6 7 8 7 7 7 7 7 7 7 7 8 8 8 7
4 4 4 5 5 5 5 5 5 5 6 7 7 7 10 6 6 6 6 6 6 6 6 6 6 6 6 6 7 7 8 8 7 7 8 8 8 8 8 7 7 7 8
4 4 4 4 4 6 5 5 5 6 6 7 6 6 5 5 6 6 7 7 6 6 6 6 7 7 7 7 7 7 8 8 8 8 8 9 9 9 8 8 10 10 9
4 4 4 4 4 4 5 5 5 6 6 6 6 6 6 6 6 7 7 6 6 6 6 6 7 10 12 10 7 7 8 9 8 8 10 10 10 10 9 9 9 11 10
3 4 4 4 4 5 5 5 5 6 6 6 6 6 6 6 6 6 6 6 7 7 9 8 7 8 11 13 12 10 11 14 14 10 9 9 11 11 10 10 9 10 10
3 3 3 3 4 4 5 5 6 6 6 6 6 6 6 6 6 7 6 6 7 7 8 8 9 11 12 11 12 14 15 16 16 16 11 9 10 10 10 9 11 10 11
Wind_Direction
120 108 94 81 70 67 59 32 10 6 13 14 9 20 21 16 16 25 14 14 15 4 4 7 355 351 354 351 358 357 285 204 252 288 279 289 302 306 316 309 287 271 273
122 108 98 82 72 61 41 19 21 23 18 19 26 30 23 17 17 22 8 14 13 3 356 358 348 351 351 342 343 330 301 252 235 283 298 303 291 284 288 292 293 278 264
118 110 96 78 69 53 29 19 26 33 31 31 39 30 12 6 9 7 13 9 6 357 354 354 343 349 341 335 330 324 309 305 254 262 287 289 288 290 300 300 291 292 277
120 112 101 86 75 54 41 37 33 38 44 33 29 22 12 8 13 13 24 17 3 357 352 344 338 335 323 325 325 316 312 313 302 277 282 287 281 288 280 286 298 288 282
121 113 110 98 80 67 57 46 39 40 43 38 42 28 16 20 23 27 28 28 8 354 349 344 339 341 337 331 326 315 309 299 301 285 282 290 282 283 266 260 268 285 271
126 127 121 100 81 68 60 54 50 42 36 42 41 36 26 16 16 34 44 39 14 2 344 338 335 344 343 341 332 324 311 293 286 274 270 269 272 261 253 245 249 277 282
131 130 123 111 95 77 73 67 55 42 41 44 39 41 29 6 26 36 39 51 30 5 347 342 346 349 348 331 331 335 327 317 297 272 264 261 266 258 250 251 238 234 245
137 137 135 126 115 99 83 72 55 52 57 51 40 37 32 16 27 33 35 45 31 6 349 337 334 331 338 340 330 330 319 313 302 288 263 266 265 261 241 238 239 248 257
148 153 154 144 135 123 110 99 86 82 65 50 36 37 33 1 16 28 37 38 20 355 342 343 338 327 334 343 339 323 317 312 307 301 291 286 286 281 264 239 235 239 258
171 168 161 152 149 153 160 153 137 120 108 60 26 9 6 338 352 13 26 42 6 335 330 329 335 337 335 338 329 313 310 306 313 315 309 304 294 285 273 237 223 233 245
165 155 155 160 164 165 158 152 142 122 86 44 5 333 328 319 333 350 357 11 305 315 319 318 317 332 336 335 329 301 296 304 302 301 300 299 297 288 276 254 232 229 235
153 155 164 172 177 156 151 154 145 135 116 358 333 320 311 309 314 320 330 328 320 290 291 293 301 321 328 330 326 315 317 320 306 302 297 292 291 286 279 267 253 246 244
152 164 173 173 175 164 164 169 168 164 169 228 246 273 290 297 302 308 313 314 310 295 277 293 305 316 321 321 317 320 323 314 302 298 294 285 276 276 281 279 271 260 258
161 173 173 173 184 188 187 184 184 194 204 223 237 252 271 286 284 284 288 296 299 297 293 301 309 312 305 295 308 315 309 291 289 278 282 283 285 283 279 273 273 274 270
166 172 176 182 187 199 211 212 208 216 204 208 222 225 237 264 265 270 276 273 270 269 290 300 306 310 310 306 303 300 298 302 296 285 282 287 289 287 282 273 263 261 258
168 179 183 186 194 201 217 261 253 242 255 251 244 238 241 251 272 283 285 285 288 291 293 279 284 284 285 288 291 295 294 289 283 281 284 283 283 287 288 282 269 258 260
178 185 186 190 197 204 208 220 261 282 277 270 266 265 262 271 278 282 286 289 290 293 269 264 269 274 277 280 280 281 284 284 280 275 278 278 277 282 283 281 276 269 268
186 193 191 198 203 208 213 217 220 235 267 280 278 274 276 276 278 279 283 291 290 283 251 258 264 267 269 272 275 278 280 284 283 276 275 276 273 275 278 278 272 265 266
188 198 202 203 207 212 216 218 223 231 240 255 275 285 278 277 278 277 278 245 252 262 260 258 260 263 265 267 270 272 275 278 280 281 275 273 273 270 273 273 272 265 262
199 212 203 202 209 215 218 221 229 234 242 248 255 262 273 273 273 276 263 248 250 256 257 258 259 259 262 266 270 273 276 276 279 279 277 274 273 269 271 270 269 268 262
199 216 218 210 213 217 221 225 230 233 239 246 251 254 250 246 252 257 258 254 252 255 257 257 258 259 260 264 266 269 271 274 273 275 278 276 276 274 270 267 267 268 265
197 206 207 215 220 224 228 229 231 236 243 250 259 265 265 253 250 255 256 257 255 252 253 255 259 258 255 258 263 266 269 272 274 274 277 278 275 276 273 271 270 267 264
198 209 217 224 225 235 239 234 234 239 245 250 255 260 261 254 252 253 255 257 257 259 256 253 260 266 264 260 257 258 264 268 270 272 276 280 279 277 273 268 268 266 265
201 212 221 229 230 231 237 243 243 245 248 252 255 256 255 254 256 257 258 259 260 261 259 257 258 263 266 268 264 258 258 263 268 269 271 275 276 276 272 269 266 265 265
200 211 220 228 234 239 244 249 250 251 253 255 256 257 257 258 258 260 260 260 261 263 265 264 264 264 266 266 268 267 266 266 267 269 273 272 272 271 270 268 268 266 263
205 214 223 229 235 239 243 248 252 253 254 255 254 253 254 256 258 260 261 262 264 267 269 268 266 266 267 268 269 269 270 271 271 270 271 272 269 267 265 262 266 265 264